Location: Geroldsau
(48.7259°N, 8.2466°E)
Time: 15:57:38
(UTC+00:00)

USA 215 - Pass Details

Date: 20 June 2021
Orbit: 1100 x 1107 km, 123.0° (Epoch: 22 June)

Event Time Altitude Azimuth Distance (km) Brightness Sun altitude
Rises 00:36:18 0° 61° (ENE) 3,923 6.9 -16.3°
Reaches altitude 10° 00:38:51 10° 57° (ENE) 2,964 6.2 -16.1°
Maximum altitude 00:45:08 52° 344° (NNW) 1,352 4.1 -15.8°
Drops below altitude 10° 00:51:24 10° 271° (W) 2,959 5.3 -15.5°
Sets 00:53:56 0° 266° (W) 3,916 5.9 -15.4°
